Hauptseite
METAR-TAF:

METAR-TAF

Flughäfen :

Cuneo, Italien

Flughafen Cuneo

Breite: 44-32-47N, Länge: 007-37-20E, Höhe: 386 m

Beobachtung

Neuester Wetterbericht von vor 54 Minuten, um 18:50 UTC
Wind 4 kt aus West
Temperatur 1°C
Luftfeuchtigkeit 86%
Luftdruck 1014 hPa
Sichtweite 10 km oder mehr
keine Wolken unter 1500 m und keine Kumulonimbus oder Gewitterwolken

METAR: LIMZ 221850Z 27004KT CAVOK 01/M01 Q1014

Zeit: 20:44 (19:44 UTC)

Prognose

Neuester Wetterbericht von vor 2 Stunden und 44 Minuten, um 17:00 UTC
Gültige Prognose vom 22 um 18 UTC bis 23 um 18 UTC
Wind 5 kt aus unterschiedlichen Richtungen
Sichtweite 10 km oder mehr
keine Wolken unter 1500 m und keine Kumulonimbus oder Gewitterwolken

TAF: LIMZ 221700Z 2218/2318 VRB05KT CAVOK

Wetterbeobachtungen und Prognosen von mehr als 4000 Flughäfen (METAR und TAF Bericht).

Die verfügbaren Stationen werden durch gelbe und rote Markierungen auf der Karte dargestellt.

Führen Sie die Maus auf sie, um den Namen der Station zu sehen.

Darauf klicken, um die Beobachtung von Wetterbeobachtungen und Prognosen zu sehen.

Um die Karte zu ändern : klicken Sie auf den grünen Tasten mit einem schwarzen Kreuz Zum Vergrößern, auf den grünen Button mit einem Gedankenstrich zu verkleinern, oder auf die grünen Pfeile für benachbarte Karten.


METAR-TAF: